Location: Bijele Vode
(45.2833°N, 16.2000°E)
Time: 22:48:12
(UTC+00:00)

Cosmos 1125 Rocket - Pass Details

Date: 24 January 2021
Orbit: 757 x 780 km, 74.0° (Epoch: 08 March)

Event Time Altitude Azimuth Distance (km) Brightness Sun altitude
Exits shadow 05:09:03 - 337° (NNW) 3,011 6.2 -13.2°
Reaches altitude 10° 05:10:47 10° 337° (NNW) 2,337 5.7 -12.9°
Maximum altitude 05:16:06 82° 251° (WSW) 794 3.5 -12.0°
Drops below altitude 10° 05:21:24 10° 164° (SSE) 2,327 6.4 -11.1°
Sets 05:23:47 0° 164° (SSE) 3,251 7.2 -10.7°
